Location: Barton Branch
(33.0662°N, 97.8692°W)
Time: 20:30:47
(UTC+00:00)

Daily predictions for brighter satellites

Satellite Brightness Start Highest point End
(mag) Time Altitude Azimuth Time Altitude Azimuth Time Altitude Azimuth
ASTEX 1 3.2 12:02:01 10° N 12:06:54 73° W 12:11:48 10° SSW
SJ-12 4.3 12:07:56 10° NNE 12:11:47 61° E 12:15:36 10° S
Cosmos 1707 Rocket 3.9 12:11:02 33° WNW 12:12:08 38° W 12:16:07 10° SSW
ARIANE 5 R/B 2.6 12:07:23 10° NNE 12:12:28 77° ESE 12:17:29 10° S
Okean 3 4.2 12:15:23 30° W 12:15:23 30° W 12:18:48 10° SSW
Okean 2 4.0 12:20:27 29° WNW 12:21:09 31° W 12:24:38 10° SSW
Meteor 1-22 Rocket 4.5 12:15:27 10° S 12:21:22 76° E 12:27:04 10° NNE
Nadezhda 4 Rocket 4.0 12:16:44 10° N 12:23:01 83° W 12:29:19 10° S
CENTAUR R/B 3.7 12:14:39 10° NNW 12:23:25 70° ENE 12:32:47 10° SE
Meteor 2-10 Rocket 3.4 12:18:59 10° SSW 12:24:07 76° W 12:29:30 10° N
Cosmos 1844 3.7 12:18:51 10° SSW 12:24:30 86° WNW 12:30:17 10° NNE
Cosmos 44 3.8 12:22:29 10° NNW 12:26:45 52° ENE 12:31:06 10° SE
CZ-2D R/B 2.8 12:23:38 10° N 12:27:03 80° WNW 12:30:27 10° SSW
Cosmos 1470 Rocket 4.2 12:23:28 10° SW 12:27:28 33° W 12:31:30 10° NNW
Cosmos 1862 Rocket 4.5 12:27:51 19° NW 12:29:58 27° W 12:33:42 10° SSW
SKYMED 2 4.2 12:27:11 10° SSW 12:31:05 33° W 12:34:46 11° NW
Cosmos 2285 Rocket 4.2 12:30:23 10° SW 12:36:31 50° WNW 12:42:44 10° N
Cosmos 1933 Rocket 3.7 12:37:46 10° SSW 12:41:56 49° W 12:46:08 10° N
Cosmos 1825 1.5 12:40:31 10° N 12:43:32 90° ESE 12:46:30 10° S
IRS-P3 4.1 12:38:51 10° N 12:44:09 71° WNW 12:49:27 10° SSW
Cosmos 1869 Rocket 3.4 12:40:19 10° S 12:44:36 82° W 12:48:57 10° N
Meteor 2-5 Rocket 4.4 12:40:24 10° N 12:46:17 62° E 12:52:05 10° SSE
Cosmos 1943 3.2 12:41:33 10° NNW 12:47:08 69° WSW 12:52:40 10° S
IRS-1C 4.3 12:42:31 10° N 12:47:36 47° WNW 12:52:39 10° SW
Cosmos 1300 4.0 12:47:46 10° WSW 12:49:49 15° WNW 12:51:53 10° NW
SL-4 R/B 3.0 12:49:08 10° SSW 12:52:09 38° SE 12:55:12 10° ENE
Cosmos 2034 Rocket 4.4 12:46:55 10° SSW 12:52:44 41° W 12:58:33 10° N
OAO 3 Copernicus 4.3 12:50:06 10° WSW 12:55:06 86° SSE 13:00:09 10° ENE
Cosmos 1486 Rocket 4.0 12:50:58 10° SSW 12:56:11 85° WNW 13:01:28 10° NNE
Cosmos 1703 Rocket 3.9 12:54:37 10° NNW 12:58:46 44° W 13:02:52 10° SSW
SL-16 R/B 3.9 12:59:56 10° WNW 13:02:26 13° W 13:04:55 10° SW
ADEOS Rocket 3.8 12:58:26 10° N 13:03:45 31° WNW 13:09:33 10° SW
Cosmos 1892 2.5 13:03:37 10° NNW 13:06:50 50° W 13:10:00 10° S
Cosmos 1503 Rocket 4.3 13:02:08 10° S 13:07:18 74° ESE 13:12:28 10° NNE
SL-19 R/B 4.1 13:02:45 10° N 13:07:58 75° WNW 13:13:08 10° SSW
SL-08 R/B 3.5 13:03:28 10° SSE 13:08:13 86° ENE 13:13:05 10° NNW
Cosmos 1092 Rocket 4.1 13:02:27 10° N 13:08:46 72° W 13:15:03 10° S
PSLV R/B 3.4 13:06:00 10° N 13:10:11 79° WNW 13:14:22 10° SSW
ACS3 Solar Sail 3.7 13:05:01 10° NNE 13:10:35 35° E 13:16:02 10° SSE
